This demonstration page uses our WeatherBlox Daily Observations layout. Learn more.

Left ArrowRight Arrow

Hourly Observations for June 18, 2018

Temp ( °F °C ) Dew Point ( °F °C ) Humidity (%) Winds ( mph kmh ) Pressure ( in mb ) Visibility ( mi km ) Precip ( " mm )
12:53 am 00:53 Cloudy 61 16.1 51 10.6 70 70 E 5 7 30.06 1018 10 16 0.00 0.00
1:53 am 01:53 Cloudy 60 15.6 51 10.6 72 72 ENE 5 7 30.07 1018 10 16 0.00 0.00
2:53 am 02:53 Cloudy 60 15.6 51 10.6 72 72 ENE 7 11 30.07 1018 10 16 0.00 0.00
3:53 am 03:53 Cloudy 59 15 51 10.6 75 75 E 7 11 30.08 1019 10 16 0.00 0.00
4:53 am 04:53 Cloudy 58 14.4 52 11.1 81 81 E 6 9 30.08 1019 10 16 0.00 0.00
5:53 am 05:53 Cloudy 58 14.4 53 11.7 84 84 ENE 6 9 30.08 1019 10 16 0.00 0.00
6:53 am 06:53 Cloudy 58 14.4 52 11.1 81 81 ENE 8 13 30.09 1019 10 16 0.00 0.00
7:53 am 07:53 Cloudy with Light Rain 59 15 53 11.7 81 81 ENE 9 15 30.08 1019 10 16 0.00 0.03
8:53 am 08:53 Mostly Cloudy 61 16.1 53 11.7 75 75 ENE 12 19 30.08 1019 10 16 0.00 0.03
9:53 am 09:53 Cloudy with Light Rain 60 15.6 55 12.8 84 84 ENE 10 17 30.09 1019 10 16 0.01 0.25
10:53 am 10:53 Cloudy with Light Rain 62 16.7 56 13.3 80 80 ENE 9 15 30.09 1019 10 16 0.00 0.03
11:53 am 11:53 Cloudy 62 16.7 56 13.3 80 80 E 10 17 30.10 1019 10 16 0.01 0.25
12:53 pm 12:53 Cloudy with Light Rain 63 17.2 55 12.8 76 76 ENE 10 17 30.09 1019 10 16 0.00 0.03
1:53 pm 13:53 Cloudy 64 17.8 54 12.2 70 70 ENE 10 17 30.08 1019 10 16 0.01 0.25
2:53 pm 14:53 Cloudy with Light Rain 64 17.8 54 12.2 70 70 NE 7 11 30.07 1018 10 16 0.00 0.03
3:53 pm 15:53 Cloudy with Light Rain 67 19.4 54 12.2 63 63 E 15 24 30.06 1018 10 16 0.00 0.03
4:53 pm 16:53 Cloudy with Light Rain 63 17.2 55 12.8 76 76 ESE 9 15 30.07 1018 10 16 0.01 0.25
5:53 pm 17:53 Cloudy 63 17.2 58 14.4 84 84 N 5 7 30.06 1018 10 16 0.00 0.03
6:53 pm 18:53 Cloudy with Light Rain 62 16.7 56 13.3 80 80 ENE 5 7 30.07 1018 10 16 0.00 0.03
7:53 pm 19:53 Cloudy 61 16.1 58 14.4 90 90 NNW 6 9 30.08 1019 10 16 0.01 0.25
8:53 pm 20:53 Cloudy with Light Rain 61 16.1 56 13.3 84 84 ENE 3 6 30.09 1019 10 16 0.00 0.03
9:53 pm 21:53 Cloudy 60 15.6 54 12.2 80 80 ENE 3 6 30.09 1019 10 16 0.00 0.03
10:53 pm 22:53 Cloudy 59 15 53 11.7 81 81 ENE 7 11 30.09 1019 10 16 0.00 0.00
11:53 pm 23:53 Cloudy with Light Rain 57 13.9 54 12.2 90 90 NE 7 11 30.10 1019 10 16 0.00 0.03

Powered by AerisWeather